Latest Weather Observations for Cooma Airport

IDN60901

Issued at 3:15 pm EST Thursday 31 July 2014 (issued every 10 minutes, with the page automatically refreshed every 10 minutes)

About weather observations | Map of Canberra area stations | Latest observations for Canberra area | Other Formats
Station Details ID: 070217 Name: COOMA AIRPORT AWS Lat: -36.29 Lon: 148.97 Height: 930.0 m
Data from the previous 72 hours. | See also: Recent months for locations in Aust Capital Territory
Date/Time
EST
Tmp

°C
App
Tmp
°C
Dew
Point
°C
Rel
Hum
%
Delta-T

°C
Wind Press
QNH
hPa
Press
MSL
hPa
Rain
since
9 am
mm
Dir
 
Spd
km/h
Gust
km/h
Spd
kts
Gust
kts
31/03:00pm 13.8 3.5 -1.4 35 6.6 NW 43 70 23 38 1000.8 1002.2 0.0
31/02:41pm 13.8 2.1 -1.8 34 6.6 NW 50 91 27 49 1000.9 - 0.0
31/02:30pm 13.9 3.4 -1.3 35 6.5 NW 44 67 24 36 1001.0 - 0.0
31/02:00pm 13.7 2.4 -1.1 36 6.4 NW 48 85 26 46 1001.9 - 0.0
31/01:30pm 13.7 1.9 0.4 40 5.9 WNW 52 83 28 45 1002.6 - 0.0
31/01:00pm 13.2 0.5 0.6 42 5.6 WNW 57 95 31 51 1002.5 - 0.0
31/12:30pm 12.4 -2.3 0.2 43 5.4 WNW 67 98 36 53 1003.1 - 0.0
31/12:24pm 12.6 -2.7 0.0 42 5.5 WNW 70 95 38 51 1003.2 - 0.0
31/12:00pm 12.9 1.9 0.6 43 5.5 WNW 48 93 26 50 1003.8 1005.4 0.0
31/11:30am 12.6 1.3 1.0 45 5.2 WNW 50 78 27 42 1004.7 - 0.0
31/11:00am 12.1 0.7 0.8 46 5.0 WNW 50 82 27 44 1005.9 - 0.0
31/10:55am 12.3 3.0 0.7 45 5.1 WNW 39 85 21 46 1006.0 - 0.0
31/10:53am 12.1 -1.4 0.8 46 5.0 WNW 61 85 33 46 1006.0 - 0.0
31/10:30am 12.4 3.3 1.7 48 4.8 WNW 39 87 21 47 1006.6 - 0.0
31/10:00am 12.2 2.9 0.9 46 5.0 WNW 39 69 21 37 1007.2 - 0.0
31/09:30am 12.0 1.9 1.3 48 4.8 WNW 44 65 24 35 1007.8 - 0.0
31/09:00am 11.7 2.5 1.1 48 4.7 WNW 39 69 21 37 1007.9 1009.5 0.0
31/08:34am 11.3 2.8 1.0 49 4.5 WNW 35 56 19 30 1008.2 - 0.0
31/08:30am 11.3 3.4 1.3 50 4.5 WNW 32 48 17 26 1008.3 - 0.0
31/08:02am 10.8 2.8 1.6 53 4.1 WNW 33 57 18 31 1008.4 - 0.0
31/08:00am 10.7 2.3 1.5 53 4.1 WNW 35 50 19 27 1008.4 - 0.0
31/07:35am 10.1 2.7 2.0 57 3.6 WNW 30 48 16 26 1008.4 - 0.0
31/07:30am 9.9 3.3 2.3 59 3.4 WNW 26 41 14 22 1008.4 - 0.0
31/07:00am 9.3 4.1 2.4 62 3.1 WNW 19 30 10 16 1008.9 - 0.0
31/06:30am 9.6 3.5 2.5 61 3.2 WNW 24 41 13 22 1009.1 - 0.0
31/06:08am 9.7 2.8 2.6 61 3.2 WNW 28 54 15 29 1009.3 - 0.0
31/06:00am 9.8 3.7 2.6 61 3.3 WNW 24 44 13 24 1009.4 1011.1 0.0
31/05:30am 9.3 6.2 1.5 58 3.4 NNE 7 26 4 14 1009.6 - 0.0
31/05:00am 9.9 1.8 1.0 54 3.9 W 33 56 18 30 1009.3 - 0.0
31/04:57am 9.9 2.8 1.3 55 3.8 W 28 52 15 28 1009.4 - 0.0
31/04:30am 9.7 3.8 1.8 58 3.5 W 22 39 12 21 1009.8 - 0.0
31/04:00am 9.6 3.7 2.0 59 3.4 W 22 32 12 17 1010.2 - 0.0
31/03:30am 10.0 4.2 2.4 59 3.4 NW 22 39 12 21 1010.5 - 0.0
31/03:00am 9.9 4.5 2.7 61 3.3 WNW 20 41 11 22 1010.7 1012.4 0.0
31/02:30am 10.2 3.6 1.8 56 3.7 WNW 26 41 14 22 1011.0 - 0.0
31/02:05am 10.0 2.1 1.1 54 3.9 WNW 32 50 17 27 1010.9 - 0.0
31/02:00am 10.1 2.2 1.0 53 4.0 WNW 32 46 17 25 1010.9 - 0.0
31/01:45am 10.4 -1.8 0.4 50 4.3 WNW 54 72 29 39 1010.6 - 0.0
31/01:43am 10.6 -2.2 0.3 49 4.5 WNW 57 72 31 39 1010.6 - 0.0
31/01:30am 10.1 2.2 2.0 57 3.6 WNW 33 54 18 29 1010.7 - 0.0
31/01:00am 10.3 1.2 1.7 55 3.8 WNW 39 65 21 35 1011.2 - 0.0
31/12:30am 10.4 3.1 2.5 58 3.6 WNW 30 48 16 26 1011.4 - 0.0
31/12:02am 10.7 4.0 3.5 61 3.3 NW 28 52 15 28 1012.2 - 0.0
31/12:00am 10.6 4.6 3.4 61 3.3 NW 24 41 13 22 1012.2 1013.9 0.0
 
Date/Time
EST
Tmp

°C
App
Tmp
°C
Dew
Point
°C
Rel
Hum
%
Delta-T

°C
Wind Press
QNH
hPa
Press
MSL
hPa
Rain
since
9 am
mm
Dir
 
Spd
km/h
Gust
km/h
Spd
kts
Gust
kts
30/11:30pm 10.5 5.2 2.8 59 3.5 NW 20 43 11 23 1012.5 - 0.0
30/11:00pm 10.6 3.5 3.4 61 3.3 WNW 30 44 16 24 1012.9 - 0.0
30/10:30pm 10.9 3.4 3.5 60 3.4 WNW 32 52 17 28 1012.7 - 0.0
30/10:20pm 10.8 4.1 3.4 60 3.4 NW 28 46 15 25 1012.8 - 0.0
30/10:00pm 10.6 4.9 2.7 58 3.6 NW 22 44 12 24 1013.1 - 0.0
30/09:30pm 10.3 4.6 2.7 59 3.5 NW 22 39 12 21 1013.4 - 0.0
30/09:00pm 10.1 4.9 3.4 63 3.1 NNW 20 30 11 16 1013.7 1015.4 0.0
30/08:30pm 10.1 4.1 3.6 64 3.0 NNW 24 32 13 17 1013.3 - 0.0
30/08:00pm 10.1 3.8 3.6 64 3.0 WNW 26 46 14 25 1013.7 - 0.0
30/07:58pm 10.2 3.5 3.5 63 3.1 WNW 28 46 15 25 1013.7 - 0.0
30/07:50pm 10.6 3.2 3.9 63 3.1 WNW 32 44 17 24 1013.7 - 0.0
30/07:30pm 10.0 7.0 4.2 67 2.7 WNW 9 24 5 13 1013.9 - 0.0
30/07:00pm 10.2 4.3 4.1 66 2.9 WNW 24 41 13 22 1013.8 - 0.0
30/06:30pm 10.3 4.8 4.0 65 2.9 WNW 22 33 12 18 1013.9 - 0.0
30/06:00pm 10.2 4.6 3.3 62 3.2 W 22 39 12 21 1013.9 1015.7 0.0
30/05:30pm 10.4 4.9 3.9 64 3.0 W 22 39 12 21 1013.7 - 0.0
30/05:00pm 10.6 3.1 4.3 65 3.0 W 33 48 18 26 1013.8 - 0.0
30/04:55pm 10.7 4.1 4.2 64 3.1 W 28 48 15 26 1013.8 - 0.0
30/04:30pm 10.8 6.3 4.3 64 3.1 NNW 17 35 9 19 1013.4 - 0.0
30/04:00pm 12.3 9.8 4.8 60 3.6 NNE 7 28 4 15 1013.6 - 0.0
30/03:30pm 11.7 6.9 4.7 62 3.4 W 19 33 10 18 1013.6 - 0.0
30/03:00pm 12.9 6.1 5.3 60 3.7 W 30 52 16 28 1013.9 1015.7 0.0
30/02:35pm 12.4 5.8 4.1 57 4.0 W 28 54 15 29 1013.7 - 0.0
30/02:30pm 12.4 6.2 4.1 57 4.0 W 26 48 14 26 1013.7 - 0.0
30/02:00pm 12.5 5.0 4.7 59 3.8 WNW 33 52 18 28 1013.8 - 0.0
30/01:36pm 12.3 5.7 4.0 57 3.9 WNW 28 48 15 26 1013.9 - 0.0
30/01:30pm 12.9 7.1 4.6 57 4.0 WNW 24 44 13 24 1013.8 - 0.0
30/01:10pm 12.9 6.5 5.3 60 3.7 WNW 28 46 15 25 1013.8 - 0.0
30/01:00pm 12.6 5.2 4.8 59 3.8 NW 33 46 18 25 1013.7 - 0.0
30/12:31pm 12.5 6.0 4.5 58 3.8 NW 28 48 15 26 1013.7 - 0.0
30/12:30pm 12.4 6.3 4.6 59 3.8 NW 26 44 14 24 1013.7 - 0.0
30/12:00pm 12.2 4.8 4.2 58 3.8 NW 32 50 17 27 1014.2 1016.0 0.0
30/11:55am 12.5 5.9 4.2 57 4.0 NW 28 46 15 25 1014.2 - 0.0
30/11:30am 11.7 4.3 4.2 60 3.6 WNW 32 48 17 26 1014.9 - 0.0
30/11:23am 12.1 5.1 4.3 59 3.7 WNW 30 48 16 26 1015.1 - 0.0
30/11:00am 11.8 5.2 4.3 60 3.6 WNW 28 43 15 23 1015.2 - 0.0
30/10:51am 11.8 4.8 4.3 60 3.6 NW 30 44 16 24 1015.2 - 0.0
30/10:30am 11.4 7.8 5.1 65 3.0 NNW 13 20 7 11 1015.1 - 0.0
30/10:00am 11.1 6.2 5.0 66 2.9 WNW 20 32 11 17 1015.2 - 0.0
30/09:30am 10.8 5.4 4.7 66 2.9 WNW 22 32 12 17 1015.2 - 0.0
30/09:00am 10.4 6.8 5.2 70 2.5 NNW 13 19 7 10 1015.1 1016.9 0.0
30/08:30am 9.7 6.5 5.1 73 2.2 NNW 11 15 6 8 1015.1 - 0.0
30/08:00am 9.9 6.6 4.3 68 2.6 WNW 11 19 6 10 1014.8 - 0.0
30/07:30am 10.0 5.9 4.4 68 2.6 WNW 15 24 8 13 1014.5 - 0.0
30/07:00am 9.8 6.1 4.4 69 2.5 NW 13 20 7 11 1014.0 - 0.0
30/06:30am 10.0 4.2 4.2 67 2.7 WNW 24 41 13 22 1013.6 - 0.0
30/06:00am 9.3 4.2 3.9 69 2.5 WNW 20 32 11 17 1012.9 1014.7 0.0
30/05:30am 10.2 3.5 3.9 65 2.9 WNW 28 41 15 22 1012.7 - 0.0
30/05:00am 10.0 5.4 3.7 65 2.9 WNW 17 30 9 16 1012.8 - 0.0
30/04:30am 9.8 5.9 3.5 65 2.9 W 13 20 7 11 1012.5 - 0.0
30/04:00am 9.6 5.7 3.4 65 2.8 W 13 24 7 13 1012.1 - 0.0
30/03:30am 9.7 4.1 3.4 65 2.9 W 22 37 12 20 1012.3 - 0.0
30/03:00am 10.0 2.4 3.7 65 2.9 WNW 33 44 18 24 1012.1 1013.8 0.0
30/02:39am 10.1 2.4 3.6 64 3.0 W 33 52 18 28 1012.1 - 0.0
30/02:30am 10.2 2.6 3.7 64 3.0 W 33 50 18 27 1012.3 - 0.0
30/02:17am 10.4 3.0 3.9 64 3.0 W 32 52 17 28 1012.3 - 0.0
30/02:00am 9.9 3.6 3.9 66 2.8 WNW 26 35 14 19 1012.4 - 0.0
30/01:30am 10.0 4.0 3.5 64 3.0 WNW 24 43 13 23 1012.6 - 0.0
30/01:00am 10.0 4.1 4.0 66 2.8 WNW 24 39 13 21 1012.8 - 0.0
30/12:39am 9.9 3.2 3.4 64 3.0 WNW 28 46 15 25 1012.8 - 0.0
30/12:30am 10.0 2.5 3.3 63 3.1 WNW 32 46 17 25 1012.7 - 0.0
30/12:03am 9.8 3.1 3.8 66 2.8 WNW 28 48 15 26 1012.9 - 0.0
30/12:00am 9.4 3.4 3.4 66 2.8 WNW 24 35 13 19 1013.0 1014.8 0.0
 
Date/Time
EST
Tmp

°C
App
Tmp
°C
Dew
Point
°C
Rel
Hum
%
Delta-T

°C
Wind Press
QNH
hPa
Press
MSL
hPa
Rain
since
9 am
mm
Dir
 
Spd
km/h
Gust
km/h
Spd
kts
Gust
kts
29/11:30pm 9.8 2.2 3.1 63 3.1 WNW 32 46 17 25 1013.4 - 0.0
29/11:00pm 9.8 3.3 2.9 62 3.1 W 26 35 14 19 1013.9 - 0.0
29/10:52pm 9.8 2.9 2.6 61 3.2 W 28 46 15 25 1014.1 - 0.0
29/10:30pm 9.2 1.3 2.1 61 3.2 WNW 33 48 18 26 1013.4 - 0.0
29/10:12pm 9.3 1.0 1.9 60 3.3 WNW 35 57 19 31 1013.3 - 0.0
29/10:00pm 9.2 0.9 1.9 60 3.2 WNW 35 52 19 28 1013.3 - 0.0
29/09:30pm 9.4 -0.2 1.1 56 3.6 WNW 41 59 22 32 1013.1 - 0.0
29/09:14pm 9.4 0.9 1.1 56 3.6 WNW 35 54 19 29 1013.5 - 0.0
29/09:00pm 9.4 1.2 0.6 54 3.8 WNW 33 44 18 24 1013.3 1015.0 0.0
29/08:34pm 9.7 1.5 0.3 52 4.0 W 33 52 18 28 1013.7 - 0.0
29/08:30pm 9.7 1.5 0.3 52 4.0 W 33 46 18 25 1013.6 - 0.0
29/08:00pm 9.5 1.8 -0.1 51 4.1 WNW 30 50 16 27 1013.0 - 0.0
29/07:54pm 9.8 2.1 -0.4 49 4.3 WNW 30 50 16 27 1012.9 - 0.0
29/07:30pm 9.1 4.7 0.3 54 3.7 WNW 13 30 7 16 1013.0 - 0.0
29/07:00pm 8.6 5.1 1.1 59 3.2 N 9 20 5 11 1012.9 - 0.0
29/06:30pm 10.0 3.7 1.6 56 3.7 NW 24 41 13 22 1012.4 - 0.0
29/06:00pm 9.8 2.3 1.5 56 3.7 WNW 30 44 16 24 1011.9 1013.7 0.0
29/05:30pm 9.6 2.1 1.3 56 3.6 WNW 30 41 16 22 1011.6 - 0.0
29/05:02pm 10.2 3.0 0.5 51 4.2 WNW 28 46 15 25 1011.8 - 0.0
29/05:00pm 10.4 3.2 0.4 50 4.3 WNW 28 41 15 22 1011.8 - 0.0
29/04:30pm 10.9 4.3 -0.5 45 4.8 WNW 24 41 13 22 1011.8 - 0.0
29/04:00pm 11.4 4.6 -1.7 40 5.4 WNW 24 39 13 21 1011.2 - 0.0
29/03:44pm 11.8 4.3 -1.7 39 5.6 W 28 46 15 25 1011.4 - 0.0
29/03:30pm 12.1 4.1 -2.1 37 5.9 W 30 39 16 21 1011.8 - 0.0
29/03:10pm 12.4 3.7 -3.4 33 6.4 WNW 33 52 18 28 1011.3 - 0.0
29/03:00pm 12.9 3.3 -4.2 30 6.8 WNW 37 52 20 28 1011.2 1012.9 0.0
29/02:32pm 13.4 4.6 -4.7 28 7.2 W 33 54 18 29 1011.7 - 0.0
29/02:30pm 13.3 4.8 -3.4 31 6.8 W 32 46 17 25 1011.5 - 0.0
29/02:00pm 13.3 5.4 -4.3 29 7.0 W 28 43 15 23 1011.4 - 0.0
29/01:30pm 14.1 6.8 -2.8 31 7.0 W 26 39 14 21 1011.9 - 0.0
29/01:00pm 13.4 5.5 -1.7 35 6.4 WNW 30 44 16 24 1011.4 - 0.0
29/12:49pm 12.9 5.2 -2.6 34 6.4 NW 28 50 15 27 1011.4 - 0.0
29/12:30pm 13.2 6.2 -0.4 39 5.9 NW 26 48 14 26 1011.5 - 0.0
29/12:11pm 12.7 5.2 -1.2 38 5.9 NW 28 59 15 32 1012.5 - 0.0
29/12:00pm 12.6 5.9 -1.0 39 5.8 WNW 24 43 13 23 1012.7 1014.4 0.0
29/11:30am 12.5 3.9 0.0 42 5.5 WNW 35 59 19 32 1013.0 - 0.0
29/11:00am 12.4 3.2 1.1 46 5.0 WNW 39 61 21 33 1013.7 - 0.0
29/10:30am 12.2 0.1 0.9 46 5.0 WNW 54 82 29 44 1013.1 - 0.0
29/10:00am 12.5 1.4 0.0 42 5.5 WNW 48 72 26 39 1011.6 - 0.0
29/09:31am 12.1 4.8 -0.1 43 5.3 WNW 28 65 15 35 1013.0 - 0.0
29/09:30am 12.2 5.3 0.0 43 5.3 WNW 26 65 14 35 1013.0 - 0.0
29/09:21am 12.0 3.4 0.1 44 5.2 WNW 35 59 19 32 1013.1 - 0.0
29/09:00am 11.8 6.6 0.3 45 5.0 NW 17 41 9 22 1013.3 1015.0 0.0
29/08:30am 11.5 6.7 0.0 45 5.0 NW 15 39 8 21 1013.4 - 0.0
29/08:03am 10.6 3.3 -0.2 47 4.6 WNW 28 50 15 27 1012.9 - 0.0
29/08:00am 10.5 3.5 -0.3 47 4.6 WNW 26 44 14 24 1012.8 - 0.0
29/07:30am 10.2 2.9 -0.3 48 4.5 WNW 28 48 15 26 1012.8 - 0.0
29/07:00am 9.5 6.7 -0.4 50 4.2 N 4 33 2 18 1013.0 - 0.0
29/06:30am 6.4 1.6 -2.2 54 3.3 NE 13 19 7 10 1013.0 - 0.0
29/06:00am 9.4 6.2 -0.8 49 4.2 WSW 6 17 3 9 1012.9 1014.7 0.0
29/05:30am 9.3 2.3 -0.6 50 4.1 WNW 26 41 14 22 1012.8 - 0.0
29/05:08am 9.4 1.6 -0.5 50 4.1 WNW 30 48 16 26 1012.6 - 0.0
29/05:00am 9.4 1.3 -0.5 50 4.1 WNW 32 43 17 23 1012.7 - 0.0
29/04:30am 9.3 1.9 -0.6 50 4.1 WNW 28 44 15 24 1012.8 - 0.0
29/04:03am 10.2 2.1 -0.6 47 4.5 WNW 32 52 17 28 1012.8 - 0.0
29/04:00am 9.8 2.0 -0.7 48 4.4 WNW 30 46 16 25 1012.8 - 0.0
29/03:35am 9.6 2.3 -0.3 50 4.2 WNW 28 46 15 25 1013.1 - 0.0
29/03:30am 9.9 3.0 0.0 50 4.2 WNW 26 44 14 24 1013.1 - 0.0
29/03:00am 6.4 1.9 -0.3 62 2.7 ENE 13 17 7 9 1013.7 1015.4 0.0
29/02:30am 7.3 1.7 0.1 60 3.0 NE 19 24 10 13 1014.1 - 0.0
29/02:00am 6.3 1.4 -0.4 62 2.7 NNE 15 20 8 11 1014.7 - 0.0
29/01:30am 7.3 4.0 0.3 61 2.9 NE 7 13 4 7 1015.0 - 0.0
29/01:00am 7.5 4.4 0.3 60 3.0 S 6 19 3 10 1015.2 - 0.0
29/12:30am 7.2 2.7 0.0 60 3.0 WNW 13 17 7 9 1015.3 - 0.0
29/12:00am 7.8 3.0 0.5 60 3.1 NW 15 22 8 12 1015.7 1017.5 0.0
 
Date/Time
EST
Tmp

°C
App
Tmp
°C
Dew
Point
°C
Rel
Hum
%
Delta-T

°C
Wind Press
QNH
hPa
Press
MSL
hPa
Rain
since
9 am
mm
Dir
 
Spd
km/h
Gust
km/h
Spd
kts
Gust
kts
28/11:30pm 8.0 2.9 0.7 60 3.1 NNW 17 24 9 13 1015.8 - 0.0
28/11:00pm 8.7 3.0 0.7 57 3.4 NW 20 32 11 17 1016.0 - 0.0
28/10:30pm 8.0 0.8 1.0 61 3.0 NW 28 41 15 22 1016.0 - 0.0
28/10:00pm 4.6 0.3 1.1 78 1.5 NE 13 22 7 12 1016.5 - 0.0
28/09:30pm 2.4 -1.8 -1.2 77 1.4 N 11 15 6 8 1016.8 - 0.0
28/09:28pm 1.9 -2.5 -2.2 74 1.5 N 11 15 6 8 1016.8 - 0.0
28/09:00pm 6.9 3.4 1.0 66 2.5 NNE 9 13 5 7 1016.7 1018.5 0.0
28/08:30pm 6.5 2.1 0.4 65 2.5 NNW 13 20 7 11 1016.8 - 0.0
28/08:00pm 6.6 2.5 0.1 63 2.7 NW 11 26 6 14 1017.1 - 0.0
28/07:30pm 6.4 1.6 -0.1 63 2.7 N 15 20 8 11 1017.0 - 0.0
28/07:00pm 7.3 2.1 -0.2 59 3.1 NNW 17 24 9 13 1016.9 - 0.0
28/06:30pm 8.0 1.8 -0.2 56 3.4 NW 22 30 12 16 1016.9 - 0.0
28/06:00pm 8.3 2.1 -0.2 55 3.5 NW 22 37 12 20 1016.7 1018.5 0.0
28/05:30pm 8.1 1.5 -0.1 56 3.4 NW 24 33 13 18 1016.4 - 0.0
28/05:00pm 8.6 3.0 -0.2 54 3.7 NW 19 26 10 14 1016.5 - 0.0
28/04:30pm 9.4 3.3 0.1 52 3.9 NW 22 39 12 21 1016.7 - 0.0
28/04:00pm 9.7 4.0 0.3 52 4.0 NW 20 30 11 16 1016.8 - 0.0
28/03:30pm 10.0 2.8 0.6 52 4.1 NW 28 35 15 19 1016.4 - 0.0

Latest Capital City Observations: Canberra | Sydney | Melbourne | Brisbane | Adelaide | Perth | Hobart | Darwin

Other Formats:

Comma delimited format used in spreadsheet applications
http://www.bom.gov.au/fwo/IDN60903/IDN60903.94921.axf

JavaScript Object Notation format (JSON) in row-major order
http://www.bom.gov.au/fwo/IDN60903/IDN60903.94921.json